Location: Newark
(35.6799°N, 139.7636°E)
Time: 14:11:26
(UTC+00:00)

Explorer 7 - Pass Details

Date: 09 December 2019
Orbit: 485 x 679 km, 50.3° (Epoch: 22 January)

Event Time Altitude Azimuth Distance (km) Brightness Sun altitude
Rises 06:42:14 0° 236° (SW) 2,959 13.3 7.0°
Reaches altitude 10° 06:44:33 10° 239° (WSW) 2,071 13.0 6.6°
Maximum altitude 06:49:20 68° 322° (NW) 724 7.6 5.8°
Drops below altitude 10° 06:54:15 10° 46° (NE) 2,117 9.2 5.0°
Sets 06:56:39 0° 49° (NE) 3,031 9.9 4.6°
